ASTEX 1

Last updated on Wed Jul 02 2025 00:02:13 GMT+0000 (Coordinated Universal Time)

1 05560U 71089A 25182.58699417 .00000268 00000+0 68949-4 0 9993 2 05560 92.7222 70.5290 0014472 205.0450 155.0056 14.50415024825901
UTC large
Height (km)
Speed (km/s)
/
Latitude / Longitude
Inclination (degrees)
Orbital Period (minutes)
Azimuth
Elevation
Range (km)
Doppler Factor

Next 0 passes for location: London (51.5072 / 0.1276)

Sorry there are no passes over London.